Regional Weather Roundup
Issued by NWS Northern Indiana

Home | Current Version | Previous Version | Graphics & Text | Print | Product List | Glossary On
Versions: 1 2 3 4 5 6 7 8 9 10 11 12 13 14 15 16 17 18 19 20 21 22 23 24 25 26 27 28 29 30 31 32 33 34 35 36 37 38 39 40 41 42 43 44 45 46 47 48 49 50
000
ASUS43 KIWX 160010
RWRIWX

KIWX WEATHER ROUNDUP
NATIONAL WEATHER SERVICE NORTHERN INDIANA
800 PM EDT MON SEP 15 2014

NOTE: "FAIR" INDICATES FEW OR NO CLOUDS BELOW 12,000 FEET WITH NO
SIGNIFICANT WEATHER AND/OR OBSTRUCTIONS TO VISIBILITY.

* THESE STATIONS ARE NOT UNDER NWS QUALITY CONTROL. THEY ALSO MAY NOT
  REPORT WEATHER SUCH AS PRECIPITATION OR FOG.

INZ001>027-160100-
NORTHERN INDIANA

CITY           SKY/WX    TMP DP  RH WIND       PRES   REMARKS
GARY*          CLOUDY    57  55  94 CALM      30.11S FOG
VALPARAISO     LGT RAIN  54  52  93 CALM      30.11F FOG
6HR MIN TEMP:  54; 6HR MAX TEMP:  57; 6HR PCP:  0.13;

MICHIGAN CITY* CLOUDY    54  54 100 SW3       30.11R
LAPORTE*       RAIN      54  54 100 S3        30.11S
6HR MIN TEMP:  53; 6HR MAX TEMP:  58; 6HR PCP:  0.01;

KNOX*          CLOUDY    54  52  93 CALM      30.11R VSB 1
6HR MIN TEMP:  41; 6HR MAX TEMP:  89;

SOUTH BEND     CLOUDY    56  53  90 SW3       30.10F
6HR MIN TEMP:  55; 6HR MAX TEMP:  60; 6HR PCP:  0.04;

ELKHART*       LGT RAIN  55  54  94 CALM      30.10F
GOSHEN         CLOUDY    56  52  86 NW5       30.10F
6HR MIN TEMP:  56; 6HR MAX TEMP:  60; 6HR PCP:  0.09;

MONTICELLO*    RAIN      55  55  99 CALM      30.09S
6HR MIN TEMP:  54; 6HR MAX TEMP:  57; 6HR PCP:  0.06;

LOGANSPORT*    RAIN      54  54 100 CALM      30.11R
ROCHESTER*     RAIN      55  55 100 CALM      30.10F
WARSAW*        DRIZZLE   54  52  94 CALM      30.10F
ANGOLA*        CLOUDY    54  43  66 CALM      30.09F
FORT WAYNE     RAIN      55  53  93 N7        30.11R FOG
6HR MIN TEMP:  55; 6HR MAX TEMP:  59; 6HR PCP:  0.21;

HUNTINGTON*    LGT RAIN  55  54  99 N5        30.10S
6HR MIN TEMP:  55; 6HR MAX TEMP:  58; 6HR PCP:  0.13;

PERU/GRISSOM   LGT RAIN  56  56 100 N5        30.09S FOG
6HR MIN TEMP:  55; 6HR MAX TEMP:  58; 6HR PCP:  0.20;

MARION*        CLOUDY    56  54  91 CALM      30.11R
6HR MIN TEMP:  40; 6HR MAX TEMP:  90; 6HR PCP:  0.17;


$$
INZ028>050-160100-
CENTRAL INDIANA

CITY           SKY/WX    TMP DP  RH WIND       PRES   REMARKS
LAFAYETTE      CLOUDY    56  55  97 CALM      30.10R FOG
6HR MIN TEMP:  55; 6HR MAX TEMP:  58; 6HR PCP:  0.03;

KOKOMO*        CLOUDY    57  54  88 CALM      30.10S
6HR MIN TEMP:  55; 6HR MAX TEMP:  59; 6HR PCP:  0.19;

MUNCIE*        CLOUDY    58  54  86 NW7       30.10R
6HR MIN TEMP:  58; 6HR MAX TEMP:  64; 6HR PCP:  0.10;

INDIANAPOLIS   RAIN      57  54  89 W5        30.08R FOG
6HR MIN TEMP:  55; 6HR MAX TEMP:  63; 6HR PCP:  0.45;


$$
MIZ043>046-050>051-056>058-064>065-071>073-077>080-160100-
SOUTHWEST LOWER MICHIGAN

CITY           SKY/WX    TMP DP  RH WIND       PRES   REMARKS
BATTLE CREEK   LGT RAIN  55  51  86 W8        30.10R
6HR MIN TEMP:  55; 6HR MAX TEMP:  63; 6HR PCP:  0.01;

BENTON HARBOR  CLOUDY    58  51  78 NW6       30.09S
6HR MIN TEMP:  57; 6HR MAX TEMP:  63; 6HR PCP: TRACE;

COLDWATER*     CLOUDY    56  54  94 W3        30.10R
6HR MIN TEMP:  56; 6HR MAX TEMP:  61;

HILLSDALE*     LGT RAIN  55  54  98 CALM      30.10R
HOLLAND        CLOUDY    56  54  93 CALM      30.10S
6HR MIN TEMP:  56; 6HR MAX TEMP:  61; 6HR PCP:  0.06;

GRAND RAPIDS   LGT RAIN  55  53  93 N5        30.10S
6HR MIN TEMP:  55; 6HR MAX TEMP:  62; 6HR PCP:  0.06;

KALAMAZOO      LGT RAIN  55  51  86 CALM      30.11S FOG
6HR MIN TEMP:  55; 6HR MAX TEMP:  64; 6HR PCP:  0.02;

STURGIS*       CLOUDY    54  54 100 W5        30.09S
THREE RIVERS*  RAIN      55  52  90 W3        30.10S
6HR MIN TEMP:  55; 6HR MAX TEMP:  62;


$$
OHZ001>008-015>018-024>025-160100-
NORTHWEST OHIO

CITY           SKY/WX    TMP DP  RH WIND       PRES   REMARKS
WAUSEON*       CLOUDY    54  54 100 W5        30.10S
DEFIANCE       LGT RAIN  55  53  93 CALM      30.10S FOG
6HR MIN TEMP:  55; 6HR MAX TEMP:  60; 6HR PCP:  0.08;

FINDLAY        CLOUDY    58  54  86 NW6       30.08S
6HR MIN TEMP:  58; 6HR MAX TEMP:  62; 6HR PCP:  0.13;

TOLEDO EXPRESS LGT RAIN  54  52  93 W8        30.10S FOG
6HR MIN TEMP:  54; 6HR MAX TEMP:  60; 6HR PCP:  0.14;

TOLEDO METCALF LGT RAIN  55  52  89 NW8       30.10R
6HR MIN TEMP:  55; 6HR MAX TEMP:  62; 6HR PCP:  0.08;

LIMA           CLOUDY    59  56  89 N7        30.08S
6HR MIN TEMP:  59; 6HR MAX TEMP:  66; 6HR PCP:  0.03;


$$
&&



USA.gov is the U.S. government's official web portal to all federal, state and local government web resources and services.